Weather History for KCHO - December, 2013

Change the Weather History Date:

Wednesday, December 25, 2013

  Actual Average Record
Temperature  
Mean Temperature 25 °F 36 °F  
Max Temperature 33 °F 45 °F 66 °F (1955)
Min Temperature 16 °F 27 °F -3 °F (1983)
Degree Days  
Heating Degree Days 40 29  
Month to date heating degree days 573 667  
Since 1 July heating degree days 1516 1558  
Cooling Degree Days 0 0  
Month to date cooling degree days 18 0  
Year to date cooling degree days 1164 1035  
Moisture  
Dew Point 9 °F    
Average Humidity 52    
Maximum Humidity 67    
Minimum Humidity 36    
Precipitation  
Precipitation 0.00 in 0.08 in 1.26 in (2009)
Month to date precipitation 2.39 2.74  
Year to date precipitation 42.95 42.30  
Sea Level Pressure  
Sea Level Pressure 30.48 in    
Wind  
Wind Speed 3 mph (South)    
Max Wind Speed 10 mph    
Max Gust Speed 14 mph    
Visibility 10 miles    
Events      
T = Trace of Precipitation, MM = Missing Value Source: NWS Daily Summary

Daily Weather History Graph

Daily Weather History Graph

Search for Another Location

Airport or City:

Trip Planner

Search our weather history database for the weather conditions in past years. The results will help you decide how hot, cold, wet, or windy it might be!

Date:

Astronomy

Dec. 25, 2013 Rise Set
Actual Time 7:28 AM EST 4:59 PM EST
Civil Twilight 6:58 AM EST 5:29 PM EST
Nautical Twilight 6:25 AM EST 6:02 PM EST
Astronomical Twilight 5:53 AM EST 6:34 PM EST
Moon No Moon Rise 11:58 AM EST (12/25)
Length of Visible Light 10h 30m
Length of Day
9h 31m
Waning Gibbous, 49% of the Moon is Illuminated
Dec 25
Waning Gibbous
Jan 1
New
Jan 7
First Quarter
Jan 15
Full
Jan 24
Last Quarter

Hourly Weather History & Observations

Time (EST) Temp. Windchill Dew Point Humidity Pressure Visibility Wind Dir Wind Speed Gust Speed Precip Events Conditions
12:53 AM 23.0 °F - 5.0 °F 46% 30.48 in 10.0 mi Calm Calm - N/A   Clear
1:53 AM 21.9 °F 17.2 °F 5.0 °F 48% 30.48 in 10.0 mi WNW 3.5 mph - N/A   Clear
2:53 AM 21.0 °F - 6.1 °F 53% 30.49 in 10.0 mi Calm Calm - N/A   Clear
3:53 AM 19.9 °F 14.9 °F 7.0 °F 57% 30.50 in 10.0 mi ENE 3.5 mph - N/A   Clear
4:53 AM 19.0 °F - 7.0 °F 59% 30.51 in 10.0 mi Calm Calm - N/A   Clear
5:53 AM 19.0 °F 13.9 °F 7.0 °F 59% 30.51 in 10.0 mi NE 3.5 mph - N/A   Clear
6:53 AM 18.0 °F - 8.1 °F 65% 30.53 in 10.0 mi Calm Calm - N/A   Clear
7:53 AM 18.0 °F - 9.0 °F 68% 30.54 in 10.0 mi Calm Calm - N/A   Clear
8:53 AM 21.9 °F - 10.0 °F 60% 30.56 in 10.0 mi Calm Calm - N/A   Clear
9:53 AM 24.1 °F - 9.0 °F 53% 30.58 in 10.0 mi Calm Calm - N/A   Clear
10:53 AM 26.1 °F - 8.1 °F 47% 30.56 in 10.0 mi Calm Calm - N/A   Clear
11:53 AM 28.0 °F 24.2 °F 8.1 °F 43% 30.53 in 10.0 mi Variable 3.5 mph - N/A   Clear
12:53 PM 30.0 °F 23.2 °F 8.1 °F 40% 30.49 in 10.0 mi SSW 6.9 mph - N/A   Clear
1:53 PM 30.9 °F 27.5 °F 8.1 °F 38% 30.47 in 10.0 mi Variable 3.5 mph - N/A   Clear
2:53 PM 32.0 °F 24.2 °F 8.1 °F 37% 30.45 in 10.0 mi South 9.2 mph - N/A   Clear
3:53 PM 32.0 °F 25.6 °F 8.1 °F 37% 30.45 in 10.0 mi SSE 6.9 mph - N/A   Clear
4:53 PM 30.0 °F 21.1 °F 9.0 °F 41% 30.45 in 10.0 mi SSW 10.4 mph - N/A   Clear
5:53 PM 27.0 °F 21.6 °F 10.0 °F 49% 30.44 in 10.0 mi South 4.6 mph - N/A   Clear
6:53 PM 28.0 °F - 10.0 °F 47% 30.44 in 10.0 mi Calm Calm - N/A   Clear
7:53 PM 26.1 °F 21.9 °F 10.9 °F 53% 30.43 in 10.0 mi South 3.5 mph - N/A   Clear
8:53 PM 26.1 °F - 10.9 °F 53% 30.42 in 10.0 mi Calm Calm - N/A   Clear
9:53 PM 26.1 °F 20.5 °F 10.0 °F 51% 30.41 in 10.0 mi SSW 4.6 mph - N/A   Clear
10:53 PM 25.0 °F 20.7 °F 10.9 °F 55% 30.39 in 10.0 mi South 3.5 mph - N/A   Clear
11:53 PM 24.1 °F 19.7 °F 10.9 °F 57% 30.37 in 10.0 mi South 3.5 mph - N/A   Clear